Location: Newark
(45.1167°S, 170.6500°W)
Time: 08:42:42
(UTC+00:00)

ISS - Visible Passes

Search period start: 22 September 2019 00:00
Search period end: 02 October 2019 00:00
Orbit: 411 x 421 km, 51.6° (Epoch: 22 September)

Date Brightness Start Highest point End Pass type
(mag) Time Alt. Az. Time Alt. Az. Time Alt. Az.
25 Sep -1.6 16:10:21 10° NNW 16:13:08 23° NE 16:15:55 10° E visible
26 Sep -1.0 15:22:52 10° NNE 15:24:47 14° NE 15:26:44 10° E visible
27 Sep -3.2 16:09:19 10° NW 16:12:35 56° NE 16:15:59 10° ESE visible
28 Sep -2.5 15:22:54 26° N 15:24:08 34° NE 15:27:18 10° ESE visible
29 Sep -1.5 14:36:23 20° ENE 14:36:23 20° ENE 14:38:25 10° E visible
29 Sep -3.6 16:09:17 13° WNW 16:12:13 65° SSW 16:15:39 10° ESE visible
30 Sep -3.8 15:22:41 45° NW 15:23:38 84° NNE 15:27:06 10° ESE visible
01 Oct -2.4 14:36:01 38° E 14:36:01 38° E 14:38:28 10° ESE visible
01 Oct -2.7 16:08:54 11° W 16:11:57 37° SSW 16:15:12 10° SE visible
